This demonstration page uses our WeatherBlox Daily Observations layout. Learn more.

Left ArrowRight Arrow

41.86663, -103.66717

Hourly Observations for September 21, 2018

Temp ( °F °C ) Dew Point ( °F °C ) Humidity (%) Winds ( mph kmh ) Pressure ( in mb ) Visibility ( mi km ) Precip ( " mm )
12:53 am 00:53 Clear 45 7.2 44 6.7 97 97 N N/A 30.14 1021 10 16 N/A
1:53 am 01:53 Clear 47 8.3 44 6.7 90 90 NNW 3 6 30.16 1021 10 16 N/A
2:53 am 02:53 Clear 44 6.7 43 6.1 96 96 NW 3 6 30.17 1022 10 16 N/A
3:53 am 03:53 Clear 43 6.1 42 5.6 97 97 WNW 5 7 30.18 1022 10 16 N/A
4:53 am 04:53 Clear 41 5 41 5 100 100 WNW 3 6 30.23 1024 10 16 N/A
5:53 am 05:53 Clear 40 4.4 40 4.4 100 100 NNW 7 11 30.24 1024 10 16 N/A
6:53 am 06:53 Sunny 41 5 40 4.4 96 96 N N/A 30.27 1025 10 16 N/A
7:53 am 07:53 Sunny 43 6.1 42 5.6 97 97 N N/A 30.30 1026 10 16 N/A
8:53 am 08:53 Sunny 50 10 44 6.7 80 80 NW 7 11 30.30 1026 10 16 N/A
9:53 am 09:53 Sunny 57 13.9 45 7.2 64 64 N N/A 30.28 1026 10 16 N/A
10:53 am 10:53 Mostly Sunny 61 16.1 43 6.1 52 52 VRB 5 7 30.27 1025 10 16 N/A
11:53 am 11:53 Sunny 66 18.9 40 4.4 39 39 S 5 7 30.23 1024 10 16 N/A
12:53 pm 12:53 Sunny 69 20.6 41 5 36 36 ESE 10 17 30.19 1022 10 16 N/A
1:53 pm 13:53 Sunny 74 23.3 42 5.6 32 32 ESE 12 19 30.14 1021 10 16 N/A
2:53 pm 14:53 Sunny 75 23.9 42 5.6 31 31 SE 7 11 30.11 1020 10 16 N/A
3:53 pm 15:53 Sunny 78 25.6 42 5.6 28 28 SSE 13 20 30.08 1019 10 16 N/A
4:53 pm 16:53 Sunny 77 25 43 6.1 30 30 SSE 16 26 30.09 1019 10 16 N/A
5:53 pm 17:53 Sunny 74 23.3 42 5.6 32 32 SSE 18 30 30.09 1019 10 16 N/A
6:53 pm 18:53 Sunny 68 20 43 6.1 40 40 SE 13 20 30.11 1020 10 16 N/A
7:53 pm 19:53 Clear 63 17.2 42 5.6 47 47 ESE 14 22 30.14 1021 10 16 N/A
8:53 pm 20:53 Clear 61 16.1 43 6.1 52 52 undefined N/A 30.14 1021 10 16 N/A
9:53 pm 21:53 Clear 59 15 43 6.1 56 56 ESE 15 24 30.14 1021 10 16 N/A
10:53 pm 22:53 Clear 56 13.3 44 6.7 65 65 undefined N/A 30.13 1020 10 16 N/A
11:53 pm 23:53 Clear 58 14.4 43 6.1 58 58 ESE 17 28 30.10 1019 10 16 N/A

Powered by AerisWeather